Location: Bacea
(45.9500°N, 22.6667°E)
Time: 15:05:12
(UTC+00:00)

Envisat - Pass Details

Date: 01 February 2022
Orbit: 764 x 765 km, 98.2° (Epoch: 15 May)

Event Time Altitude Azimuth Distance (km) Brightness Sun altitude
Rises 02:15:26 0° 27° (NNE) 3,242 6.7 -37.6°
Reaches altitude 10° 02:18:21 10° 44° (NE) 2,310 6.0 -37.1°
Maximum altitude 02:22:04 20° 91° (E) 1,708 5.3 -36.5°
Drops below altitude 10° 02:25:46 10° 138° (SE) 2,298 5.7 -35.9°
Sets 02:28:39 0° 155° (SSE) 3,219 6.4 -35.4°
